Location: Aucun
(42.9667°N, 0.1667°W)
Time: 20:43:47
(UTC+00:00)

CZ-4B R/B - Pass Details

Date: 17 February 2020
Orbit: 487 x 652 km, 97.9° (Epoch: 07 April)

Event Time Altitude Azimuth Distance (km) Brightness Sun altitude
Rises 05:14:21 0° 6° (N) 2,647 6.4 -19.3°
Reaches altitude 10° 05:16:32 10° 0° (N) 1,734 5.4 -18.9°
Enters shadow 05:19:49 44° 302° (WNW) 705 2.9 -18.3°
